Terminal Aerodrome Forecast
Issued by NWS

Home | Current Version | Previous Version | Text Only | Print | Product List | Glossary On
Versions: 1 2 3 4 5 6 7 8 9 10 11 12
000
FTUS45 KRIW 262300
TAFCPR
TAF
KCPR 262329Z 2700/2724 35007KT P6SM SKC
     FM270300 04010KT P6SM SKC
     FM270900 08008KT P6SM SKC
     FM271200 VRB06KT P6SM SKC=

USA.gov is the U.S. government's official web portal to all federal, state and local government web resources and services.